BEIDOU-3 M16 (C35)

Last updated on Oct. 26, 2020, 5:53 a.m. UTC

1 43648U 18078B   20299.62793355 -.00000120  00000-0  10000-3 0  9999
2 43648  55.2078  11.1702 0003227 348.6981 207.7959  1.86232069 13807
UTC
Height (km)
Latitude
Longitude
Inclination
Orbital Period
UTC large
Height (km)
Speed (km/s)
/
Latitude / Longitude
Inclination (degrees)
Orbital Period (minutes)
Azimuth
Elevation
Range (km)
Doppler Factor
iOS Compass Heading
iOS Angle

Next 30 passes for location: Hong Kong

Rise time Rise Azimuth (degrees) Set time Set Azimuth (degrees) Duration Max altitude (degrees)

No matching passes for this satellites